| time (UTC) | temp F | wind direction | speed knots | gust knots | rain 1hr in | rain 24hr in | rain mn in | humidity % | barometer mb |
| 20260905180042 | 73 | 58 | 7.8 | 13.9 | 0.00 | 0.00 | 0.00 | 71 | 1014.7 |
| 20260905174540 | 73 | 16 | 7.0 | 12.2 | 0.00 | 0.00 | 0.00 | 71 | 1014.6 |
| 20260905173042 | 73 | 49 | 7.8 | 12.2 | 0.00 | 0.00 | 0.00 | 69 | 1014.6 |
| 20260905171539 | 73 | 67 | 7.8 | 10.4 | 0.00 | 0.00 | 0.00 | 68 | 1014.6 |
| 20260905170038 | 73 | 47 | 5.2 | 11.3 | 0.00 | 0.00 | 0.00 | 66 | 1014.7 |
| 20260905164535 | 73 | 44 | 7.8 | 10.4 | 0.00 | 0.00 | 0.00 | 68 | 1014.7 |
| 20260905163034 | 73 | 101 | 4.3 | 10.4 | 0.00 | 0.00 | 0.00 | 69 | 1014.7 |
| 20260905161532 | 72 | 58 | 7.0 | 9.6 | 0.00 | 0.00 | 0.00 | 66 | 1014.7 |
| 20260905160031 | 72 | 51 | 8.7 | 10.4 | 0.00 | 0.00 | 0.00 | 63 | 1014.7 |
| 20260905154527 | 73 | 14 | 5.2 | 8.7 | 0.00 | 0.00 | 0.00 | 69 | 1014.6 |
| 20260905153026 | 73 | 67 | 4.3 | 8.7 | 0.00 | 0.00 | 0.00 | 71 | 1014.5 |
| 20260905151522 | 72 | 68 | 5.2 | 10.4 | 0.00 | 0.00 | 0.00 | 69 | 1014.4 |
| 20260905150019 | 71 | 58 | 7.0 | 11.3 | 0.00 | 0.00 | 0.00 | 69 | 1014.4 |
| 20260905144519 | 71 | 100 | 5.2 | 9.6 | 0.00 | 0.00 | 0.00 | 73 | 1014.4 |
| 20260905143013 | 71 | 53 | 5.2 | 8.7 | 0.00 | 0.00 | 0.00 | 74 | 1014.3 |
| 20260905141511 | 70 | 58 | 4.3 | 9.6 | 0.00 | 0.00 | 0.00 | 75 | 1014.4 |
| 20260905140007 | 70 | 30 | 6.1 | 10.4 | 0.00 | 0.00 | 0.00 | 77 | 1014.3 |
| 20260905134502 | 69 | 61 | 6.1 | 10.4 | 0.00 | 0.00 | 0.00 | 78 | 1014.3 |
| 20260905133058 | 69 | 57 | 5.2 | 9.6 | 0.00 | 0.00 | 0.00 | 78 | 1014.2 |
| 20260905131553 | 69 | 54 | 5.2 | 10.4 | 0.00 | 0.00 | 0.00 | 79 | 1014.2 |
| 20260905130049 | 68 | 73 | 3.5 | 5.2 | 0.00 | 0.00 | 0.00 | 83 | 1014.2 |
| 20260905124547 | 66 | 58 | 1.7 | 4.3 | 0.00 | 0.01 | 0.00 | 84 | 1014.2 |
| 20260905123048 | 66 | 50 | 3.5 | 8.7 | 0.00 | 0.01 | 0.00 | 83 | 1014.1 |
| 20260905121541 | 66 | 69 | 0.9 | 4.3 | 0.00 | 0.01 | 0.00 | 84 | 1014.1 |
| 20260905120037 | 65 | 47 | 2.6 | 4.3 | 0.00 | 0.01 | 0.00 | 85 | 1013.9 |
| 20260905114534 | 65 | 44 | 3.5 | 6.1 | 0.00 | 0.01 | 0.00 | 86 | 1013.6 |
| 20260905113034 | 64 | 66 | 1.7 | 4.3 | 0.00 | 0.01 | 0.00 | 88 | 1013.6 |
| 20260905111531 | 64 | 55 | 2.6 | 5.2 | 0.00 | 0.01 | 0.00 | 88 | 1013.4 |
| 20260905110029 | 64 | 43 | 2.6 | 4.3 | 0.00 | 0.01 | 0.00 | 87 | 1013.4 |
| 20260905104528 | 64 | 62 | 3.5 | 8.7 | 0.00 | 0.01 | 0.00 | 87 | 1013.1 |
| 20260905103034 | 64 | 37 | 4.3 | 7.8 | 0.00 | 0.01 | 0.00 | 87 | 1013.2 |
| 20260905101530 | 65 | 28 | 4.3 | 7.0 | 0.00 | 0.01 | 0.00 | 87 | 1013.3 |
| 20260905100026 | 65 | 26 | 3.5 | 5.2 | 0.00 | 0.01 | 0.00 | 87 | 1013.5 |
| 20260905094526 | 65 | 48 | 3.5 | 4.3 | 0.00 | 0.01 | 0.00 | 87 | 1013.6 |
| 20260905093025 | 65 | 50 | 2.6 | 4.3 | 0.00 | 0.01 | 0.00 | 87 | 1013.6 |
| 20260905091524 | 65 | 36 | 3.5 | 5.2 | 0.00 | 0.01 | 0.00 | 88 | 1013.4 |
| 20260905090032 | 65 | 24 | 2.6 | 3.5 | 0.00 | 0.01 | 0.00 | 90 | 1013.2 |
| 20260905084522 | 65 | 40 | 0.9 | 2.6 | 0.00 | 0.01 | 0.00 | 91 | 1013.3 |
| 20260905083021 | 65 | 40 | 0.9 | 2.6 | 0.00 | 0.01 | 0.00 | 91 | 1013.4 |
| 20260905081522 | 65 | 48 | 1.7 | 5.2 | 0.00 | 0.01 | 0.00 | 91 | 1013.1 |
| 20260905080021 | 65 | 34 | 2.6 | 4.3 | 0.00 | 0.01 | 0.00 | 92 | 1013.1 |
| 20260905074519 | 65 | 36 | 2.6 | 4.3 | 0.00 | 0.01 | 0.00 | 92 | 1012.8 |
| 20260905073019 | 65 | 13 | 1.7 | 3.5 | 0.00 | 0.01 | 0.00 | 92 | 1012.8 |
| 20260905071519 | 65 | 39 | 0.9 | 2.6 | 0.00 | 0.01 | 0.00 | 92 | 1012.6 |
| 20260905070019 | 65 | 39 | 1.7 | 5.2 | 0.00 | 0.01 | 0.00 | 92 | 1012.7 |
| 20260905064513 | 65 | 36 | 2.6 | 3.5 | 0.00 | 0.01 | 0.00 | 92 | 1013.1 |
| 20260905063011 | 63 | 46 | 1.7 | 4.3 | 0.00 | 0.01 | 0.00 | 91 | 1012.8 |
| 20260905061510 | 63 | 18 | 0.0 | 0.0 | 0.00 | 0.01 | 0.00 | 91 | 1012.9 |
| 20260905060009 | 63 | 19 | 0.0 | 1.7 | 0.00 | 0.01 | 0.00 | 91 | 1013.2 |
| 20260905054511 | 64 | 28 | 0.9 | 1.7 | 0.00 | 0.01 | 0.00 | 90 | 1013.2 |
| 20260905053011 | 63 | 28 | 1.7 | 2.6 | 0.00 | 0.01 | 0.00 | 91 | 1013.2 |
| 20260905051505 | 63 | 45 | 0.9 | 2.6 | 0.00 | 0.01 | 0.00 | 91 | 1013.1 |
| 20260905050004 | 62 | 45 | 0.9 | 2.6 | 0.00 | 0.01 | 0.00 | 91 | 1013.0 |
| 20260905044502 | 62 | 360 | 0.9 | 3.5 | 0.00 | 0.01 | 0.00 | 91 | 1013.1 |
| 20260905043101 | 63 | 360 | 0.0 | 0.0 | 0.00 | 0.01 | 0.00 | 91 | 1013.2 |
| 20260905041557 | 63 | 360 | 0.0 | 0.0 | 0.00 | 0.01 | 0.00 | 90 | 1013.3 |
| 20260905040059 | 63 | 360 | 0.9 | 2.6 | 0.00 | 0.01 | 0.00 | 90 | 1013.3 |
| 20260905034553 | 64 | 360 | 0.9 | 2.6 | 0.00 | 0.01 | 0.01 | 89 | 1013.6 |
| 20260905033053 | 65 | 14 | 1.7 | 3.5 | 0.00 | 0.01 | 0.01 | 88 | 1013.6 |
| 20260905031553 | 65 | 338 | 0.9 | 2.6 | 0.00 | 0.01 | 0.01 | 87 | 1013.6 |
| 20260905024550 | 66 | 22 | 2.6 | 7.0 | 0.00 | 0.01 | 0.01 | 88 | 1013.6 |
| 20260905023051 | 66 | 33 | 4.3 | 7.0 | 0.00 | 0.01 | 0.01 | 88 | 1013.5 |
| 20260905021550 | 66 | 48 | 2.6 | 5.2 | 0.00 | 0.01 | 0.01 | 88 | 1013.5 |
| 20260905014548 | 66 | 5 | 2.6 | 4.3 | 0.00 | 0.01 | 0.01 | 86 | 1013.9 |
| 20260905013053 | 66 | 360 | 1.7 | 3.5 | 0.00 | 0.01 | 0.01 | 87 | 1013.9 |
| 20260905011625 | 65 | 45 | 1.7 | 2.6 | 0.00 | 0.01 | 0.01 | 88 | 1013.8 |
| 20260905010047 | 65 | 45 | 0.0 | 2.6 | 0.00 | 0.01 | 0.01 | 88 | 1013.7 |
| 20260905004547 | 66 | 45 | 1.7 | 2.6 | 0.00 | 0.01 | 0.01 | 87 | 1013.6 |
| 20260905003047 | 66 | 5 | 0.0 | 0.9 | 0.00 | 0.01 | 0.01 | 86 | 1013.6 |
| 20260905001556 | 65 | 5 | 0.0 | 1.7 | 0.00 | 0.01 | 0.01 | 86 | 1013.4 |
| 20260905000046 | 66 | 49 | 1.7 | 4.3 | 0.00 | 0.01 | 0.01 | 84 | 1013.2 |
| 20260904234544 | 67 | 38 | 2.6 | 7.8 | 0.00 | 0.01 | 0.01 | 81 | 1013.2 |
| 20260904233045 | 68 | 42 | 5.2 | 9.6 | 0.00 | 0.01 | 0.01 | 79 | 1012.8 |
| 20260904231542 | 68 | 51 | 5.2 | 9.6 | 0.00 | 0.01 | 0.01 | 79 | 1012.8 |
| 20260904230042 | 69 | 46 | 6.1 | 8.7 | 0.00 | 0.01 | 0.01 | 80 | 1012.9 |
| 20260904224546 | 69 | 39 | 4.3 | 9.6 | 0.00 | 0.01 | 0.01 | 80 | 1012.8 |
| 20260904223042 | 69 | 49 | 5.2 | 7.8 | 0.00 | 0.01 | 0.01 | 81 | 1012.9 |
| 20260904221541 | 69 | 69 | 4.3 | 9.6 | 0.00 | 0.01 | 0.01 | 81 | 1012.7 |
| 20260904220040 | 69 | 60 | 6.1 | 13.0 | 0.00 | 0.01 | 0.01 | 80 | 1012.6 |
| 20260904214538 | 70 | 55 | 8.7 | 13.0 | 0.00 | 0.01 | 0.01 | 79 | 1012.3 |
| 20260904213039 | 69 | 55 | 6.1 | 11.3 | 0.00 | 0.01 | 0.01 | 84 | 1012.4 |
| 20260904211538 | 69 | 65 | 7.8 | 13.0 | 0.00 | 0.01 | 0.01 | 85 | 1012.4 |
| 20260904210037 | 69 | 38 | 8.7 | 13.9 | 0.00 | 0.01 | 0.01 | 86 | 1012.3 |
| 20260904204537 | 69 | 39 | 7.8 | 13.9 | 0.00 | 0.05 | 0.01 | 86 | 1012.1 |
| 20260904203037 | 70 | 44 | 9.6 | 13.0 | 0.00 | 0.05 | 0.01 | 87 | 1012.2 |
| 20260904201535 | 71 | 69 | 5.2 | 10.4 | 0.00 | 0.05 | 0.01 | 88 | 1012.3 |
| 20260904200035 | 70 | 55 | 7.8 | 10.4 | 0.00 | 0.05 | 0.01 | 88 | 1012.4 |
| 20260904194539 | 70 | 51 | 5.2 | 9.6 | 0.00 | 0.34 | 0.01 | 88 | 1012.5 |
| 20260904193033 | 71 | 74 | 7.8 | 10.4 | 0.00 | 0.34 | 0.01 | 87 | 1012.2 |
| 20260904191533 | 72 | 63 | 7.0 | 10.4 | 0.00 | 0.34 | 0.01 | 87 | 1012.2 |
| 20260904190032 | 72 | 57 | 7.8 | 10.4 | 0.00 | 0.34 | 0.01 | 86 | 1012.4 |
| 20260904184534 | 72 | 59 | 7.0 | 10.4 | 0.00 | 0.36 | 0.01 | 86 | 1012.5 |
| 20260904183030 | 73 | 86 | 3.5 | 7.0 | 0.00 | 0.36 | 0.01 | 84 | 1012.4 |
| 20260904181543 | 74 | 82 | 1.7 | 6.1 | 0.00 | 0.36 | 0.01 | 82 | 1012.2 |